Year,Month,Day,Hour,Minute,Value (Times are PST for temperature in C)
2005,07,27,00,00,16.80
2005,07,27,00,01,16.80
2005,07,27,00,02,16.80
2005,07,27,00,03,16.80
2005,07,27,00,04,16.80
2005,07,27,00,05,16.70
2005,07,27,00,06,16.70
2005,07,27,00,07,16.70
2005,07,27,00,08,16.70
2005,07,27,00,09,16.70
2005,07,27,00,10,16.60
2005,07,27,00,11,16.60
2005,07,27,00,12,16.60
2005,07,27,00,13,16.50
2005,07,27,00,14,16.40
2005,07,27,00,15,16.40
2005,07,27,00,16,16.40
2005,07,27,00,17,16.40
2005,07,27,00,18,16.40
2005,07,27,00,19,16.40
2005,07,27,00,20,16.30
2005,07,27,00,21,16.30
2005,07,27,00,22,16.30
2005,07,27,00,23,16.30
2005,07,27,00,24,16.30
2005,07,27,00,25,16.30
2005,07,27,00,26,16.20
2005,07,27,00,27,16.20
2005,07,27,00,28,16.20
2005,07,27,00,29,16.20
2005,07,27,00,30,16.20
2005,07,27,00,31,16.20
2005,07,27,00,32,16.20
2005,07,27,00,33,16.10
2005,07,27,00,34,16.10
2005,07,27,00,35,16.10
2005,07,27,00,36,16.10
2005,07,27,00,37,16.10
2005,07,27,00,38,16.10
2005,07,27,00,39,15.90
2005,07,27,00,40,15.90
2005,07,27,00,41,15.90
2005,07,27,00,42,15.80
2005,07,27,00,43,15.80
2005,07,27,00,44,15.80
2005,07,27,00,45,15.80
2005,07,27,00,46,15.80
2005,07,27,00,47,15.70
2005,07,27,00,48,15.70
2005,07,27,00,49,15.70
2005,07,27,00,50,15.70
2005,07,27,00,51,15.70
2005,07,27,00,52,15.70
2005,07,27,00,53,15.70
2005,07,27,00,54,15.60
2005,07,27,00,55,15.60
2005,07,27,00,56,15.60
2005,07,27,00,57,15.60
2005,07,27,00,58,15.60
2005,07,27,00,59,15.60
2005,07,27,01,00,15.60
2005,07,27,01,01,15.60
2005,07,27,01,02,15.60
2005,07,27,01,03,15.60
2005,07,27,01,04,15.60
2005,07,27,01,05,15.60
2005,07,27,01,06,15.50
2005,07,27,01,07,15.40
2005,07,27,01,08,15.40
2005,07,27,01,09,15.30
2005,07,27,01,10,15.30
2005,07,27,01,11,15.30
2005,07,27,01,12,15.20
2005,07,27,01,13,15.10
2005,07,27,01,14,15.00
2005,07,27,01,15,14.90
2005,07,27,01,16,14.80
2005,07,27,01,17,14.70
2005,07,27,01,18,14.60
2005,07,27,01,19,14.50
2005,07,27,01,20,14.50
2005,07,27,01,21,14.40
2005,07,27,01,22,14.30
2005,07,27,01,23,14.20
2005,07,27,01,24,14.20
2005,07,27,01,25,14.20
2005,07,27,01,26,14.20
2005,07,27,01,27,14.10
2005,07,27,01,28,14.10
2005,07,27,01,29,14.10
2005,07,27,01,30,14.00
2005,07,27,01,31,14.00
2005,07,27,01,32,14.00
2005,07,27,01,33,14.00
2005,07,27,01,34,14.00
2005,07,27,01,35,14.00
2005,07,27,01,36,14.00
2005,07,27,01,37,14.00
2005,07,27,01,38,14.00
2005,07,27,01,39,14.00
2005,07,27,01,40,14.00
2005,07,27,01,41,14.00
2005,07,27,01,42,14.00
2005,07,27,01,43,14.00
2005,07,27,01,44,14.00
2005,07,27,01,45,14.00
2005,07,27,01,46,14.00
2005,07,27,01,47,14.00
2005,07,27,01,48,14.00
2005,07,27,01,49,13.90
2005,07,27,01,50,13.90
2005,07,27,01,51,13.90
2005,07,27,01,52,13.90
2005,07,27,01,53,13.90
2005,07,27,01,54,13.90
2005,07,27,01,55,13.90
2005,07,27,01,56,13.80
2005,07,27,01,57,13.80
2005,07,27,01,58,13.80
2005,07,27,01,59,13.80
2005,07,27,02,00,13.80
2005,07,27,02,01,13.80
2005,07,27,02,02,13.80
2005,07,27,02,03,13.80
2005,07,27,02,04,13.80
2005,07,27,02,05,13.80
2005,07,27,02,06,13.90
2005,07,27,02,07,13.90
2005,07,27,02,08,13.90
2005,07,27,02,09,13.90
2005,07,27,02,10,13.90
2005,07,27,02,11,13.90
2005,07,27,02,12,13.90
2005,07,27,02,13,13.90
2005,07,27,02,14,13.90
2005,07,27,02,15,13.90
2005,07,27,02,16,13.90
2005,07,27,02,17,13.90
2005,07,27,02,18,13.90
2005,07,27,02,19,13.90
2005,07,27,02,20,13.90
2005,07,27,02,21,13.90
2005,07,27,02,22,13.90
2005,07,27,02,23,13.90
2005,07,27,02,24,13.90
2005,07,27,02,25,13.80
2005,07,27,02,26,13.80
2005,07,27,02,27,13.80
2005,07,27,02,28,13.80
2005,07,27,02,29,13.80
2005,07,27,02,30,13.80
2005,07,27,02,31,13.70
2005,07,27,02,32,13.70
2005,07,27,02,33,13.70
2005,07,27,02,34,13.70
2005,07,27,02,35,13.70
2005,07,27,02,36,13.70
2005,07,27,02,37,13.70
2005,07,27,02,38,13.70
2005,07,27,02,39,13.70
2005,07,27,02,40,13.70
2005,07,27,02,41,13.70
2005,07,27,02,42,13.70
2005,07,27,02,43,13.70
2005,07,27,02,44,13.70
2005,07,27,02,45,13.70
2005,07,27,02,46,13.70
2005,07,27,02,47,13.70
2005,07,27,02,48,13.60
2005,07,27,02,49,13.60
2005,07,27,02,50,13.60
2005,07,27,02,51,13.60
2005,07,27,02,52,13.60
2005,07,27,02,53,13.60
2005,07,27,02,54,13.60
2005,07,27,02,55,13.50
2005,07,27,02,56,13.50
2005,07,27,02,57,13.50
2005,07,27,02,58,13.50
2005,07,27,02,59,13.50
2005,07,27,03,00,13.50
2005,07,27,03,01,13.50
2005,07,27,03,02,13.50
2005,07,27,03,03,13.50
2005,07,27,03,04,13.40
2005,07,27,03,05,13.40
2005,07,27,03,06,13.40
2005,07,27,03,07,13.40
2005,07,27,03,08,13.40
2005,07,27,03,09,13.40
2005,07,27,03,10,13.40
2005,07,27,03,11,13.40
2005,07,27,03,12,13.40
2005,07,27,03,13,13.40
2005,07,27,03,14,13.40
2005,07,27,03,15,13.40
2005,07,27,03,16,13.40
2005,07,27,03,17,13.30
2005,07,27,03,18,13.30
2005,07,27,03,19,13.30
2005,07,27,03,20,13.30
2005,07,27,03,21,13.30
2005,07,27,03,22,13.30
2005,07,27,03,23,13.30
2005,07,27,03,24,13.30
2005,07,27,03,25,13.30
2005,07,27,03,26,13.30
2005,07,27,03,27,13.30
2005,07,27,03,28,13.30
2005,07,27,03,29,13.30
2005,07,27,03,30,13.30
2005,07,27,03,31,13.20
2005,07,27,03,32,13.20
2005,07,27,03,33,13.20
2005,07,27,03,34,13.20
2005,07,27,03,35,13.20
2005,07,27,03,36,13.20
2005,07,27,03,37,13.20
2005,07,27,03,38,13.30
2005,07,27,03,39,13.20
2005,07,27,03,40,13.20
2005,07,27,03,41,13.20
2005,07,27,03,42,13.20
2005,07,27,03,43,13.20
2005,07,27,03,44,13.20
2005,07,27,03,45,13.20
2005,07,27,03,46,13.20
2005,07,27,03,47,13.20
2005,07,27,03,48,13.10
2005,07,27,03,49,13.10
2005,07,27,03,50,13.10
2005,07,27,03,51,13.10
2005,07,27,03,52,13.10
2005,07,27,03,53,13.10
2005,07,27,03,54,13.10
2005,07,27,03,55,13.10
2005,07,27,03,56,13.10
2005,07,27,03,57,13.00
2005,07,27,03,58,13.00
2005,07,27,03,59,13.00
2005,07,27,04,00,13.00
2005,07,27,04,01,13.00
2005,07,27,04,02,13.00
2005,07,27,04,03,13.00
2005,07,27,04,04,13.00
2005,07,27,04,05,12.90
2005,07,27,04,06,12.90
2005,07,27,04,07,12.90
2005,07,27,04,08,12.90
2005,07,27,04,09,12.90
2005,07,27,04,10,12.90
2005,07,27,04,11,12.90
2005,07,27,04,12,12.90
2005,07,27,04,13,12.90
2005,07,27,04,14,12.90
2005,07,27,04,15,12.80
2005,07,27,04,16,12.80
2005,07,27,04,17,12.80
2005,07,27,04,18,12.80
2005,07,27,04,19,12.80
2005,07,27,04,20,12.80
2005,07,27,04,21,12.80
2005,07,27,04,22,12.70
2005,07,27,04,23,12.70
2005,07,27,04,24,12.70
2005,07,27,04,25,12.60
2005,07,27,04,26,12.60
2005,07,27,04,27,12.60
2005,07,27,04,28,12.60
2005,07,27,04,29,12.60
2005,07,27,04,30,12.60
2005,07,27,04,31,12.60
2005,07,27,04,32,12.60
2005,07,27,04,33,12.50
2005,07,27,04,34,12.50
2005,07,27,04,35,12.50
2005,07,27,04,36,12.50
2005,07,27,04,37,12.50
2005,07,27,04,38,12.50
2005,07,27,04,39,12.40
2005,07,27,04,40,12.40
2005,07,27,04,41,12.40
2005,07,27,04,42,12.30
2005,07,27,04,43,12.30
2005,07,27,04,44,12.30
2005,07,27,04,45,12.30
2005,07,27,04,46,12.30
2005,07,27,04,47,12.30
2005,07,27,04,48,12.30
2005,07,27,04,49,12.30
2005,07,27,04,50,12.30
2005,07,27,04,51,12.30
2005,07,27,04,52,12.30
2005,07,27,04,53,12.30
2005,07,27,04,54,12.30
2005,07,27,04,55,12.30
2005,07,27,04,56,12.30
2005,07,27,04,57,12.30
2005,07,27,04,58,12.30
2005,07,27,04,59,12.30
2005,07,27,05,00,12.30
2005,07,27,05,01,12.30
2005,07,27,05,02,12.30
2005,07,27,05,03,12.30
2005,07,27,05,04,12.30
2005,07,27,05,05,12.30
2005,07,27,05,06,12.30
2005,07,27,05,07,12.30
2005,07,27,05,08,12.30
2005,07,27,05,09,12.30
2005,07,27,05,10,12.30
2005,07,27,05,11,12.30
2005,07,27,05,12,12.20
2005,07,27,05,13,12.20
2005,07,27,05,14,12.20
2005,07,27,05,15,12.20
2005,07,27,05,16,12.20
2005,07,27,05,17,12.20
2005,07,27,05,18,12.20
2005,07,27,05,19,12.20
2005,07,27,05,20,12.20
2005,07,27,05,21,12.20
2005,07,27,05,22,12.20
2005,07,27,05,23,12.20
2005,07,27,05,24,12.20
2005,07,27,05,25,12.20
2005,07,27,05,26,12.20
2005,07,27,05,27,12.20
2005,07,27,05,28,12.20
2005,07,27,05,29,12.20
2005,07,27,05,30,12.20
2005,07,27,05,31,12.20
2005,07,27,05,32,12.20
2005,07,27,05,33,12.20
2005,07,27,05,34,12.20
2005,07,27,05,35,12.20
2005,07,27,05,36,12.20
2005,07,27,05,37,12.20
2005,07,27,05,38,12.20
2005,07,27,05,39,12.20
2005,07,27,05,40,12.20
2005,07,27,05,41,12.20
2005,07,27,05,42,12.20
2005,07,27,05,43,12.20
2005,07,27,05,44,12.20
2005,07,27,05,45,12.20
2005,07,27,05,46,12.20
2005,07,27,05,47,12.20
2005,07,27,05,48,12.20
2005,07,27,05,49,12.20
2005,07,27,05,50,12.20
2005,07,27,05,51,12.20
2005,07,27,05,52,12.30
2005,07,27,05,53,12.20
2005,07,27,05,54,12.20
2005,07,27,05,55,12.20
2005,07,27,05,56,12.30
2005,07,27,05,57,12.30
2005,07,27,05,58,12.30
2005,07,27,05,59,12.30
2005,07,27,06,00,12.30
2005,07,27,06,01,12.30
2005,07,27,06,02,12.30
2005,07,27,06,03,12.40
2005,07,27,06,04,12.40
2005,07,27,06,05,12.50
2005,07,27,06,06,12.50
2005,07,27,06,07,12.50
2005,07,27,06,08,12.60
2005,07,27,06,09,12.60
2005,07,27,06,10,12.60
2005,07,27,06,11,12.70
2005,07,27,06,12,12.70
2005,07,27,06,13,12.70
2005,07,27,06,14,12.80
2005,07,27,06,15,12.80
2005,07,27,06,16,12.80
2005,07,27,06,17,12.80
2005,07,27,06,18,12.80
2005,07,27,06,19,12.80
2005,07,27,06,20,12.90
2005,07,27,06,21,12.90
2005,07,27,06,22,12.90
2005,07,27,06,23,13.00
2005,07,27,06,24,13.00
2005,07,27,06,25,13.10
2005,07,27,06,26,13.10
2005,07,27,06,27,13.10
2005,07,27,06,28,13.20
2005,07,27,06,29,13.20
2005,07,27,06,30,13.30
2005,07,27,06,31,13.30
2005,07,27,06,32,13.30
2005,07,27,06,33,13.30
2005,07,27,06,34,13.30
2005,07,27,06,35,13.30
2005,07,27,06,36,13.50
2005,07,27,06,37,13.50
2005,07,27,06,38,13.60
2005,07,27,06,39,13.60
2005,07,27,06,40,13.70
2005,07,27,06,41,13.70
2005,07,27,06,42,13.70
2005,07,27,06,43,13.80
2005,07,27,06,44,13.80
2005,07,27,06,45,13.90
2005,07,27,06,46,13.90
2005,07,27,06,47,14.00
2005,07,27,06,48,14.00
2005,07,27,06,49,14.10
2005,07,27,06,50,14.20
2005,07,27,06,51,14.20
2005,07,27,06,52,14.20
2005,07,27,06,53,14.30
2005,07,27,06,54,14.40
2005,07,27,06,55,14.40
2005,07,27,06,56,14.50
2005,07,27,06,57,14.50
2005,07,27,06,58,14.60
2005,07,27,06,59,14.60
2005,07,27,07,00,14.70
2005,07,27,07,01,14.70
2005,07,27,07,02,14.80
2005,07,27,07,03,14.80
2005,07,27,07,04,14.80
2005,07,27,07,05,14.90
2005,07,27,07,06,14.90
2005,07,27,07,07,15.00
2005,07,27,07,08,15.10
2005,07,27,07,09,15.10
2005,07,27,07,10,15.20
2005,07,27,07,11,15.30
2005,07,27,07,12,15.30
2005,07,27,07,13,15.40
2005,07,27,07,14,15.50
2005,07,27,07,15,15.50
2005,07,27,07,16,15.60
2005,07,27,07,17,15.60
2005,07,27,07,18,15.70
2005,07,27,07,19,15.80
2005,07,27,07,20,15.80
2005,07,27,07,21,15.80
2005,07,27,07,22,15.90
2005,07,27,07,23,16.10
2005,07,27,07,24,16.10
2005,07,27,07,25,16.20
2005,07,27,07,26,16.20
2005,07,27,07,27,16.30
2005,07,27,07,28,16.30
2005,07,27,07,29,16.40
2005,07,27,07,30,16.40
2005,07,27,07,31,16.40
2005,07,27,07,32,16.40
2005,07,27,07,33,16.60
2005,07,27,07,34,16.70
2005,07,27,07,35,16.70
2005,07,27,07,36,16.70
2005,07,27,07,37,16.80
2005,07,27,07,38,16.90
2005,07,27,07,39,17.00
2005,07,27,07,40,17.10
2005,07,27,07,41,17.20
2005,07,27,07,42,17.30
2005,07,27,07,43,17.50
2005,07,27,07,44,17.60
2005,07,27,07,45,17.80
2005,07,27,07,46,17.90
2005,07,27,07,47,18.00
2005,07,27,07,48,18.10
2005,07,27,07,49,18.20
2005,07,27,07,50,18.20
2005,07,27,07,51,18.40
2005,07,27,07,52,18.50
2005,07,27,07,53,18.50
2005,07,27,07,54,18.60
2005,07,27,07,55,18.60
2005,07,27,07,56,18.50
2005,07,27,07,57,18.50
2005,07,27,07,58,18.50
2005,07,27,07,59,18.60
2005,07,27,08,00,18.60
2005,07,27,08,01,18.60
2005,07,27,08,02,18.70
2005,07,27,08,03,18.70
2005,07,27,08,04,18.70
2005,07,27,08,05,18.70
2005,07,27,08,06,18.70
2005,07,27,08,07,18.80
2005,07,27,08,08,18.90
2005,07,27,08,09,18.90
2005,07,27,08,10,19.00
2005,07,27,08,11,19.10
2005,07,27,08,12,19.10
2005,07,27,08,13,19.10
2005,07,27,08,14,19.30
2005,07,27,08,15,19.20
2005,07,27,08,16,19.10
2005,07,27,08,17,19.00
2005,07,27,08,18,18.90
2005,07,27,08,19,18.70
2005,07,27,08,20,18.60
2005,07,27,08,21,18.50
2005,07,27,08,22,18.50
2005,07,27,08,23,18.40
2005,07,27,08,24,18.30
2005,07,27,08,25,18.20
2005,07,27,08,26,18.20
2005,07,27,08,27,18.20
2005,07,27,08,28,18.00
2005,07,27,08,29,17.90
2005,07,27,08,30,17.90
2005,07,27,08,31,17.80
2005,07,27,08,32,17.80
2005,07,27,08,33,17.80
2005,07,27,08,34,17.80
2005,07,27,08,35,17.90
2005,07,27,08,36,17.90
2005,07,27,08,37,17.90
2005,07,27,08,38,17.90
2005,07,27,08,39,18.00
2005,07,27,08,40,18.10
2005,07,27,08,41,18.20
2005,07,27,08,42,18.20
2005,07,27,08,43,18.20
2005,07,27,08,44,18.20
2005,07,27,08,45,18.20
2005,07,27,08,46,18.30
2005,07,27,08,47,18.40
2005,07,27,08,48,18.50
2005,07,27,08,49,18.50
2005,07,27,08,50,18.50
2005,07,27,08,51,18.60
2005,07,27,08,52,18.60
2005,07,27,08,53,18.60
2005,07,27,08,54,18.70
2005,07,27,08,55,18.70
2005,07,27,08,56,18.90
2005,07,27,08,57,19.00
2005,07,27,08,58,19.10
2005,07,27,08,59,19.10
2005,07,27,09,00,19.10
2005,07,27,09,01,19.30
2005,07,27,09,02,19.40
2005,07,27,09,03,19.40
2005,07,27,09,04,19.50
2005,07,27,09,05,19.60
2005,07,27,09,06,19.80
2005,07,27,09,07,19.90
2005,07,27,09,08,20.10
2005,07,27,09,09,20.20
2005,07,27,09,10,20.30
2005,07,27,09,11,20.40
2005,07,27,09,12,20.40
2005,07,27,09,13,20.40
2005,07,27,09,14,20.30
2005,07,27,09,15,20.10
2005,07,27,09,16,19.90
2005,07,27,09,17,19.80
2005,07,27,09,18,19.60
2005,07,27,09,19,19.60
2005,07,27,09,20,19.60
2005,07,27,09,21,19.60
2005,07,27,09,22,19.70
2005,07,27,09,23,19.80
2005,07,27,09,24,19.70
2005,07,27,09,25,19.60
2005,07,27,09,26,19.60
2005,07,27,09,27,19.50
2005,07,27,09,28,19.40
2005,07,27,09,29,19.40
2005,07,27,09,30,19.50
2005,07,27,09,31,19.60
2005,07,27,09,32,19.70
2005,07,27,09,33,19.80
2005,07,27,09,34,19.90
2005,07,27,09,35,20.00
2005,07,27,09,36,20.10
2005,07,27,09,37,20.10
2005,07,27,09,38,20.10
2005,07,27,09,39,20.00
2005,07,27,09,40,19.90
2005,07,27,09,41,19.80
2005,07,27,09,42,19.60
2005,07,27,09,43,19.50
2005,07,27,09,44,19.30
2005,07,27,09,45,19.20
2005,07,27,09,46,19.20
2005,07,27,09,47,19.20
2005,07,27,09,48,19.20
2005,07,27,09,49,19.20
2005,07,27,09,50,19.20
2005,07,27,09,51,19.30
2005,07,27,09,52,19.30
2005,07,27,09,53,19.40
2005,07,27,09,54,19.50
2005,07,27,09,55,19.60
2005,07,27,09,56,19.80
2005,07,27,09,57,19.90
2005,07,27,09,58,20.20
2005,07,27,09,59,20.40
2005,07,27,10,00,20.60
2005,07,27,10,01,20.70
2005,07,27,10,02,20.90
2005,07,27,10,03,21.00
2005,07,27,10,04,21.10
2005,07,27,10,05,21.20
2005,07,27,10,06,21.30
2005,07,27,10,07,21.40
2005,07,27,10,08,21.40
2005,07,27,10,09,21.40
2005,07,27,10,10,21.40
2005,07,27,10,11,21.50
2005,07,27,10,12,21.60
2005,07,27,10,13,21.60
2005,07,27,10,14,21.40
2005,07,27,10,15,21.20
2005,07,27,10,16,21.00
2005,07,27,10,17,21.00
2005,07,27,10,18,20.60
2005,07,27,10,19,20.40
2005,07,27,10,20,20.40
2005,07,27,10,21,20.40
2005,07,27,10,22,20.20
2005,07,27,10,23,20.20
2005,07,27,10,24,20.10
2005,07,27,10,25,20.00
2005,07,27,10,26,19.90
2005,07,27,10,27,19.90
2005,07,27,10,28,19.90
2005,07,27,10,29,19.90
2005,07,27,10,30,19.90
2005,07,27,10,31,19.90
2005,07,27,10,32,19.90
2005,07,27,10,33,19.90
2005,07,27,10,34,19.90
2005,07,27,10,35,19.90
2005,07,27,10,36,19.90
2005,07,27,10,37,19.90
2005,07,27,10,38,19.90
2005,07,27,10,39,20.00
2005,07,27,10,40,20.10
2005,07,27,10,41,20.10
2005,07,27,10,42,20.10
2005,07,27,10,43,20.10
2005,07,27,10,44,20.10
2005,07,27,10,45,20.10
2005,07,27,10,46,20.10
2005,07,27,10,47,20.10
2005,07,27,10,48,20.10
2005,07,27,10,49,20.20
2005,07,27,10,50,20.20
2005,07,27,10,51,20.20
2005,07,27,10,52,20.30
2005,07,27,10,53,20.40
2005,07,27,10,54,20.50
2005,07,27,10,55,20.50
2005,07,27,10,56,20.50
2005,07,27,10,57,20.60
2005,07,27,10,58,20.70
2005,07,27,10,59,20.80
2005,07,27,11,00,20.90
2005,07,27,11,01,20.90
2005,07,27,11,02,21.00
2005,07,27,11,03,21.10
2005,07,27,11,04,21.20
2005,07,27,11,05,21.30
2005,07,27,11,06,21.40
2005,07,27,11,07,21.40
2005,07,27,11,08,21.40
2005,07,27,11,09,21.40
2005,07,27,11,10,21.40
2005,07,27,11,11,21.30
2005,07,27,11,12,21.30
2005,07,27,11,13,21.40
2005,07,27,11,14,21.40
2005,07,27,11,15,21.50
2005,07,27,11,16,21.60
2005,07,27,11,17,21.60
2005,07,27,11,18,21.50
2005,07,27,11,19,21.40
2005,07,27,11,20,21.30
2005,07,27,11,21,21.30
2005,07,27,11,22,21.30
2005,07,27,11,23,21.30
2005,07,27,11,24,21.40
2005,07,27,11,25,21.50
2005,07,27,11,26,21.70
2005,07,27,11,27,21.90
2005,07,27,11,28,22.00
2005,07,27,11,29,22.00
2005,07,27,11,30,21.90
2005,07,27,11,31,21.90
2005,07,27,11,32,21.80
2005,07,27,11,33,21.70
2005,07,27,11,34,21.70
2005,07,27,11,35,21.70
2005,07,27,11,36,21.80
2005,07,27,11,37,21.90
2005,07,27,11,38,22.10
2005,07,27,11,39,22.30
2005,07,27,11,40,22.40
2005,07,27,11,41,22.60
2005,07,27,11,42,22.60
2005,07,27,11,43,22.70
2005,07,27,11,44,22.70
2005,07,27,11,45,22.60
2005,07,27,11,46,22.60
2005,07,27,11,47,22.50
2005,07,27,11,48,22.30
2005,07,27,11,49,22.20
2005,07,27,11,50,22.20
2005,07,27,11,51,22.20
2005,07,27,11,52,22.30
2005,07,27,11,53,22.30
2005,07,27,11,54,22.20
2005,07,27,11,55,22.20
2005,07,27,11,56,22.20
2005,07,27,11,57,22.20
2005,07,27,11,58,22.20
2005,07,27,11,59,22.10
2005,07,27,12,00,21.90
2005,07,27,12,01,21.90
2005,07,27,12,02,22.00
2005,07,27,12,03,22.30
2005,07,27,12,04,22.40
2005,07,27,12,05,22.50
2005,07,27,12,06,22.50
2005,07,27,12,07,22.50
2005,07,27,12,08,22.70
2005,07,27,12,09,22.80
2005,07,27,12,10,22.90
2005,07,27,12,11,23.00
2005,07,27,12,12,23.10
2005,07,27,12,13,23.10
2005,07,27,12,14,23.30
2005,07,27,12,15,23.30
2005,07,27,12,16,23.40
2005,07,27,12,17,23.40
2005,07,27,12,18,23.40
2005,07,27,12,19,23.30
2005,07,27,12,20,23.40
2005,07,27,12,21,23.40
2005,07,27,12,22,23.40
2005,07,27,12,23,23.50
2005,07,27,12,24,23.60
2005,07,27,12,25,23.60
2005,07,27,12,26,23.60
2005,07,27,12,27,23.70
2005,07,27,12,28,23.80
2005,07,27,12,29,23.80
2005,07,27,12,30,23.90
2005,07,27,12,31,23.90
2005,07,27,12,32,23.90
2005,07,27,12,33,23.80
2005,07,27,12,34,23.80
2005,07,27,12,35,23.80
2005,07,27,12,36,23.90
2005,07,27,12,37,23.90
2005,07,27,12,38,23.90
2005,07,27,12,39,23.90
2005,07,27,12,40,23.90
2005,07,27,12,41,23.80
2005,07,27,12,42,23.80
2005,07,27,12,43,23.90
2005,07,27,12,44,24.00
2005,07,27,12,45,24.10
2005,07,27,12,46,24.10
2005,07,27,12,47,24.10
2005,07,27,12,48,24.10
2005,07,27,12,49,24.00
2005,07,27,12,50,23.90
2005,07,27,12,51,23.70
2005,07,27,12,52,23.70
2005,07,27,12,53,23.70
2005,07,27,12,54,23.70
2005,07,27,12,55,23.60
2005,07,27,12,56,23.60
2005,07,27,12,57,23.60
2005,07,27,12,58,23.60
2005,07,27,12,59,23.60
2005,07,27,13,00,23.60
2005,07,27,13,01,23.70
2005,07,27,13,02,23.70
2005,07,27,13,03,23.80
2005,07,27,13,04,23.80
2005,07,27,13,05,23.80
2005,07,27,13,06,23.80
2005,07,27,13,07,23.70
2005,07,27,13,08,23.70
2005,07,27,13,09,23.70
2005,07,27,13,10,23.70
2005,07,27,13,11,23.70
2005,07,27,13,12,23.70
2005,07,27,13,13,23.70
2005,07,27,13,14,23.70
2005,07,27,13,15,23.70
2005,07,27,13,16,23.70
2005,07,27,13,17,23.70
2005,07,27,13,18,23.70
2005,07,27,13,19,23.70
2005,07,27,13,20,23.70
2005,07,27,13,21,23.70
2005,07,27,13,22,23.80
2005,07,27,13,23,24.00
2005,07,27,13,24,24.10
2005,07,27,13,25,24.10
2005,07,27,13,26,24.10
2005,07,27,13,27,24.10
2005,07,27,13,28,24.00
2005,07,27,13,29,23.90
2005,07,27,13,30,23.80
2005,07,27,13,31,23.80
2005,07,27,13,32,23.80
2005,07,27,13,33,23.90
2005,07,27,13,34,23.90
2005,07,27,13,35,24.00
2005,07,27,13,36,24.10
2005,07,27,13,37,24.10
2005,07,27,13,38,24.10
2005,07,27,13,39,24.10
2005,07,27,13,40,24.20
2005,07,27,13,41,24.30
2005,07,27,13,42,24.30
2005,07,27,13,43,24.20
2005,07,27,13,44,24.20
2005,07,27,13,45,24.10
2005,07,27,13,46,24.10
2005,07,27,13,47,24.10
2005,07,27,13,48,24.10
2005,07,27,13,49,24.10
2005,07,27,13,50,24.00
2005,07,27,13,51,23.90
2005,07,27,13,52,24.00
2005,07,27,13,53,24.10
2005,07,27,13,54,23.90
2005,07,27,13,55,24.10
2005,07,27,13,56,24.10
2005,07,27,13,57,24.10
2005,07,27,13,58,24.10
2005,07,27,13,59,24.10
2005,07,27,14,00,24.20
2005,07,27,14,01,24.20
2005,07,27,14,02,24.20
2005,07,27,14,03,24.30
2005,07,27,14,04,24.30
2005,07,27,14,05,24.30
2005,07,27,14,06,24.20
2005,07,27,14,07,24.20
2005,07,27,14,08,24.30
2005,07,27,14,09,24.40
2005,07,27,14,10,24.50
2005,07,27,14,11,24.50
2005,07,27,14,12,24.50
2005,07,27,14,13,24.50
2005,07,27,14,14,24.60
2005,07,27,14,15,24.70
2005,07,27,14,16,24.80
2005,07,27,14,17,24.80
2005,07,27,14,18,24.90
2005,07,27,14,19,24.90
2005,07,27,14,20,24.90
2005,07,27,14,21,25.00
2005,07,27,14,22,25.20
2005,07,27,14,23,25.30
2005,07,27,14,24,25.40
2005,07,27,14,25,25.50
2005,07,27,14,26,25.60
2005,07,27,14,27,25.70
2005,07,27,14,28,25.80
2005,07,27,14,29,25.80
2005,07,27,14,30,25.70
2005,07,27,14,31,25.70
2005,07,27,14,32,25.70
2005,07,27,14,33,25.60
2005,07,27,14,34,25.60
2005,07,27,14,35,25.70
2005,07,27,14,36,25.80
2005,07,27,14,37,25.80
2005,07,27,14,38,25.90
2005,07,27,14,39,26.10
2005,07,27,14,40,26.30
2005,07,27,14,41,26.40
2005,07,27,14,42,26.60
2005,07,27,14,43,26.70
2005,07,27,14,44,26.80
2005,07,27,14,45,26.80
2005,07,27,14,46,26.90
2005,07,27,14,47,26.90
2005,07,27,14,48,26.70
2005,07,27,14,49,26.80
2005,07,27,14,50,26.80
2005,07,27,14,51,26.90
2005,07,27,14,52,26.90
2005,07,27,14,53,26.90
2005,07,27,14,54,26.80
2005,07,27,14,55,26.50
2005,07,27,14,56,26.30
2005,07,27,14,57,26.10
2005,07,27,14,58,25.90
2005,07,27,14,59,25.70
2005,07,27,15,00,25.70
2005,07,27,15,01,25.70
2005,07,27,15,02,25.80
2005,07,27,15,03,25.90
2005,07,27,15,04,26.10
2005,07,27,15,05,26.20
2005,07,27,15,06,26.40
2005,07,27,15,07,26.60
2005,07,27,15,08,26.50
2005,07,27,15,09,26.30
2005,07,27,15,10,26.10
2005,07,27,15,11,25.90
2005,07,27,15,12,25.80
2005,07,27,15,13,25.70
2005,07,27,15,14,25.50
2005,07,27,15,15,25.40
2005,07,27,15,16,25.40
2005,07,27,15,17,25.40
2005,07,27,15,18,25.40
2005,07,27,15,19,25.40
2005,07,27,15,20,25.40
2005,07,27,15,21,25.40
2005,07,27,15,22,25.50
2005,07,27,15,23,25.60
2005,07,27,15,24,25.70
2005,07,27,15,25,25.90
2005,07,27,15,26,26.00
2005,07,27,15,27,26.20
2005,07,27,15,28,26.50
2005,07,27,15,29,26.60
2005,07,27,15,30,26.80
2005,07,27,15,31,27.00
2005,07,27,15,32,27.10
2005,07,27,15,33,27.30
2005,07,27,15,34,27.30
2005,07,27,15,35,27.30
2005,07,27,15,36,27.30
2005,07,27,15,37,27.20
2005,07,27,15,38,27.10
2005,07,27,15,39,26.80
2005,07,27,15,40,26.50
2005,07,27,15,41,26.30
2005,07,27,15,42,26.20
2005,07,27,15,43,26.10
2005,07,27,15,44,26.00
2005,07,27,15,45,26.20
2005,07,27,15,46,26.40
2005,07,27,15,47,26.50
2005,07,27,15,48,26.60
2005,07,27,15,49,26.60
2005,07,27,15,50,26.60
2005,07,27,15,51,26.60
2005,07,27,15,52,26.70
2005,07,27,15,53,26.70
2005,07,27,15,54,26.70
2005,07,27,15,55,26.70
2005,07,27,15,56,26.70
2005,07,27,15,57,26.70
2005,07,27,15,58,26.80
2005,07,27,15,59,26.70
2005,07,27,16,00,26.70
2005,07,27,16,01,26.70
2005,07,27,16,02,26.70
2005,07,27,16,03,26.60
2005,07,27,16,04,26.60
2005,07,27,16,05,26.50
2005,07,27,16,06,26.40
2005,07,27,16,07,26.30
2005,07,27,16,08,26.20
2005,07,27,16,09,26.30
2005,07,27,16,10,26.30
2005,07,27,16,11,26.40
2005,07,27,16,12,26.40
2005,07,27,16,13,26.30
2005,07,27,16,14,26.30
2005,07,27,16,15,26.40
2005,07,27,16,16,26.40
2005,07,27,16,17,26.40
2005,07,27,16,18,26.40
2005,07,27,16,19,26.40
2005,07,27,16,20,26.40
2005,07,27,16,21,26.50
2005,07,27,16,22,26.60
2005,07,27,16,23,26.60
2005,07,27,16,24,26.60
2005,07,27,16,25,26.60
2005,07,27,16,26,26.60
2005,07,27,16,27,26.60
2005,07,27,16,28,26.60
2005,07,27,16,29,26.60
2005,07,27,16,30,26.60
2005,07,27,16,31,26.60
2005,07,27,16,32,26.60
2005,07,27,16,33,26.60
2005,07,27,16,34,26.60
2005,07,27,16,35,26.60
2005,07,27,16,36,26.60
2005,07,27,16,37,26.70
2005,07,27,16,38,26.80
2005,07,27,16,39,26.90
2005,07,27,16,40,27.10
2005,07,27,16,41,27.20
2005,07,27,16,42,27.20
2005,07,27,16,43,27.20
2005,07,27,16,44,27.00
2005,07,27,16,45,26.80
2005,07,27,16,46,26.60
2005,07,27,16,47,26.50
2005,07,27,16,48,26.40
2005,07,27,16,49,26.40
2005,07,27,16,50,26.40
2005,07,27,16,51,26.40
2005,07,27,16,52,26.40
2005,07,27,16,53,26.50
2005,07,27,16,54,26.50
2005,07,27,16,55,26.50
2005,07,27,16,56,26.60
2005,07,27,16,57,26.60
2005,07,27,16,58,26.60
2005,07,27,16,59,26.60
2005,07,27,17,00,26.60
2005,07,27,17,01,26.60
2005,07,27,17,02,26.40
2005,07,27,17,03,26.40
2005,07,27,17,04,26.30
2005,07,27,17,05,26.10
2005,07,27,17,06,26.00
2005,07,27,17,07,26.00
2005,07,27,17,08,26.00
2005,07,27,17,09,25.90
2005,07,27,17,10,25.80
2005,07,27,17,11,25.80
2005,07,27,17,12,25.80
2005,07,27,17,13,25.70
2005,07,27,17,14,25.80
2005,07,27,17,15,25.90
2005,07,27,17,16,25.90
2005,07,27,17,17,25.90
2005,07,27,17,18,25.80
2005,07,27,17,19,25.80